Time,TemperatureF,DewpointF,PressureIn,WindDirection,WindDirectionDegrees,WindSpeedMPH,WindSpeedGustMPH,Humidity,HourlyPrecipIn,Conditions,Clouds,dailyrainin,SoftwareType,DateUTC
2013-04-24 00:01:00,54.0,54.0,30.12,ESE,110,0.0,0.0,100,0.00,,,0.00,,2013-04-24 04:01:00,
2013-04-24 00:03:00,54.0,54.0,30.12,ESE,110,0.0,0.0,100,0.00,,,0.00,,2013-04-24 04:03:00,
2013-04-24 00:12:00,54.0,54.0,30.12,ESE,110,0.0,0.0,100,0.00,,,0.00,,2013-04-24 04:12:00,
2013-04-24 00:23:00,55.0,55.0,30.12,South,181,0.0,1.0,100,0.00,,,0.00,,2013-04-24 04:23:00,
2013-04-24 00:33:00,55.0,55.0,30.12,South,181,0.0,0.0,100,0.00,,,0.00,,2013-04-24 04:33:00,
2013-04-24 00:43:00,55.0,55.0,30.12,South,181,0.0,0.0,100,0.00,,,0.00,,2013-04-24 04:43:00,
2013-04-24 00:53:00,54.0,54.0,30.11,South,181,0.0,0.0,100,0.00,,,0.00,,2013-04-24 04:53:00,
2013-04-24 01:02:00,55.0,55.0,30.12,South,181,0.0,2.0,100,0.00,,,0.00,,2013-04-24 05:02:00,
2013-04-24 01:12:00,55.0,55.0,30.12,South,181,0.0,2.0,100,0.00,,,0.00,,2013-04-24 05:12:00,
2013-04-24 01:22:00,54.0,54.0,30.12,South,181,0.0,0.0,100,0.00,,,0.00,,2013-04-24 05:22:00,
2013-04-24 01:32:00,54.0,54.0,30.11,South,181,0.0,0.0,100,0.00,,,0.00,,2013-04-24 05:32:00,
2013-04-24 01:42:00,54.0,54.0,30.11,South,181,0.0,0.0,100,0.00,,,0.00,,2013-04-24 05:42:00,
2013-04-24 01:52:00,54.0,54.0,30.11,ESE,107,0.0,2.0,100,0.00,,,0.00,,2013-04-24 05:52:00,
2013-04-24 02:02:00,54.0,54.0,30.11,SE,125,0.0,0.0,100,0.00,,,0.00,,2013-04-24 06:02:00,
2013-04-24 02:12:00,54.0,54.0,30.11,SE,125,0.0,0.0,100,0.00,,,0.00,,2013-04-24 06:12:00,
2013-04-24 02:22:00,54.0,54.0,30.11,South,187,0.0,2.0,100,0.00,,,0.00,,2013-04-24 06:22:00,
2013-04-24 02:33:00,54.0,54.0,30.10,East,97,0.0,2.0,100,0.00,,,0.00,,2013-04-24 06:33:00,
2013-04-24 02:42:00,54.0,54.0,30.10,East,97,0.0,2.0,100,0.00,,,0.00,,2013-04-24 06:42:00,
2013-04-24 02:52:00,53.0,53.0,30.10,SW,222,0.0,2.0,100,0.00,,,0.00,,2013-04-24 06:52:00,
2013-04-24 03:02:00,53.0,53.0,30.09,SSE,156,0.0,2.0,100,0.00,,,0.00,,2013-04-24 07:02:00,
2013-04-24 03:11:00,53.0,53.0,30.09,SSE,156,0.0,2.0,100,0.00,,,0.00,,2013-04-24 07:11:00,
2013-04-24 03:22:00,52.0,52.0,30.09,SSE,156,0.0,0.0,100,0.00,,,0.00,,2013-04-24 07:22:00,
2013-04-24 03:32:00,52.0,52.0,30.09,SSE,156,0.0,0.0,100,0.00,,,0.00,,2013-04-24 07:32:00,
2013-04-24 03:42:00,52.0,52.0,30.09,SSE,156,0.0,0.0,100,0.00,,,0.00,,2013-04-24 07:42:00,
2013-04-24 03:52:00,52.0,52.0,30.09,South,190,0.0,2.0,100,0.00,,,0.00,,2013-04-24 07:52:00,
2013-04-24 04:02:00,52.0,52.0,30.09,SSW,207,0.0,0.0,100,0.00,,,0.00,,2013-04-24 08:02:00,
2013-04-24 04:12:00,52.0,52.0,30.09,SSW,207,0.0,0.0,100,0.00,,,0.00,,2013-04-24 08:12:00,
2013-04-24 04:21:00,52.0,52.0,30.10,SW,222,0.0,0.0,100,0.00,,,0.00,,2013-04-24 08:21:00,
2013-04-24 04:33:00,51.0,51.0,30.10,SSW,212,0.0,1.0,100,0.00,,,0.00,,2013-04-24 08:33:00,
2013-04-24 04:42:00,51.0,51.0,30.10,SSW,212,0.0,1.0,100,0.00,,,0.00,,2013-04-24 08:42:00,
2013-04-24 04:52:00,51.0,51.0,30.10,SSE,158,0.0,1.0,100,0.00,,,0.00,,2013-04-24 08:52:00,
2013-04-24 05:02:00,51.0,51.0,30.10,SSE,163,0.0,0.0,100,0.00,,,0.00,,2013-04-24 09:02:00,
2013-04-24 05:11:00,51.0,51.0,30.10,SSE,163,0.0,0.0,100,0.00,,,0.00,,2013-04-24 09:11:00,
2013-04-24 05:21:00,52.0,52.0,30.10,South,188,1.0,2.0,100,0.00,,,0.00,,2013-04-24 09:21:00,
2013-04-24 05:33:00,52.0,52.0,30.10,South,177,1.0,3.0,100,0.00,,,0.00,,2013-04-24 09:33:00,
2013-04-24 05:42:00,52.0,52.0,30.10,South,177,1.0,3.0,100,0.00,,,0.00,,2013-04-24 09:42:00,
2013-04-24 05:53:00,51.0,51.0,30.10,SE,129,0.0,1.0,100,0.00,,,0.00,,2013-04-24 09:53:00,
2013-04-24 06:02:00,51.0,51.0,30.10,WSW,245,0.0,3.0,100,0.00,,,0.00,,2013-04-24 10:02:00,
2013-04-24 06:12:00,51.0,51.0,30.10,WSW,245,0.0,3.0,100,0.00,,,0.00,,2013-04-24 10:12:00,
2013-04-24 06:22:00,51.0,51.0,30.11,WSW,245,0.0,0.0,100,0.00,,,0.00,,2013-04-24 10:22:00,
2013-04-24 06:32:00,51.0,51.0,30.11,WSW,243,1.0,3.0,100,0.00,,,0.00,,2013-04-24 10:32:00,
2013-04-24 06:42:00,51.0,51.0,30.11,WSW,243,1.0,3.0,100,0.00,,,0.00,,2013-04-24 10:42:00,
2013-04-24 06:53:00,51.0,51.0,30.11,SW,236,2.0,5.0,100,0.00,,,0.00,,2013-04-24 10:53:00,
2013-04-24 07:02:00,52.0,52.0,30.12,WSW,253,3.0,6.0,100,0.00,,,0.00,,2013-04-24 11:02:00,
2013-04-24 07:11:00,52.0,52.0,30.12,South,186,2.0,9.0,100,0.00,,,0.00,,2013-04-24 11:11:00,
2013-04-24 07:21:00,52.0,52.0,30.12,South,186,2.0,9.0,100,0.00,,,0.00,,2013-04-24 11:21:00,
2013-04-24 07:32:00,52.0,52.0,30.13,SSW,195,1.0,8.0,100,0.00,,,0.00,,2013-04-24 11:32:00,
2013-04-24 07:42:00,52.0,52.0,30.13,SSW,195,1.0,8.0,100,0.00,,,0.00,,2013-04-24 11:42:00,
2013-04-24 07:52:00,53.0,53.0,30.13,WSW,246,2.0,10.0,100,0.00,,,0.00,,2013-04-24 11:52:00,
2013-04-24 08:02:00,53.0,53.0,30.13,SW,214,1.0,8.0,100,0.00,,,0.00,,2013-04-24 12:02:00,
2013-04-24 08:11:00,53.0,53.0,30.13,WSW,243,0.0,4.0,100,0.00,,,0.00,,2013-04-24 12:11:00,
2013-04-24 08:22:00,53.0,53.0,30.13,WSW,243,0.0,4.0,100,0.00,,,0.00,,2013-04-24 12:22:00,
2013-04-24 08:32:00,53.0,53.0,30.15,SW,232,5.0,9.0,100,0.00,,,0.00,,2013-04-24 12:32:00,
2013-04-24 08:42:00,53.0,53.0,30.15,SW,232,5.0,9.0,100,0.00,,,0.00,,2013-04-24 12:42:00,
2013-04-24 08:52:00,54.0,54.0,30.14,SE,124,2.0,5.0,100,0.00,,,0.00,,2013-04-24 12:52:00,
2013-04-24 09:01:00,54.0,54.0,30.14,SW,235,4.0,6.0,100,0.00,,,0.00,,2013-04-24 13:01:00,
2013-04-24 09:12:00,54.0,54.0,30.14,SW,235,4.0,6.0,100,0.00,,,0.00,,2013-04-24 13:12:00,
2013-04-24 09:22:00,55.0,55.0,30.14,SW,224,4.0,5.0,100,0.00,,,0.00,,2013-04-24 13:22:00,
2013-04-24 09:32:00,55.0,55.0,30.14,SSE,159,0.0,6.0,100,0.00,,,0.00,,2013-04-24 13:32:00,
2013-04-24 09:41:00,55.0,55.0,30.14,SSE,159,0.0,6.0,100,0.00,,,0.00,,2013-04-24 13:41:00,
2013-04-24 09:52:00,56.0,56.0,30.14,SE,134,3.0,6.0,100,0.00,,,0.00,,2013-04-24 13:52:00,
2013-04-24 10:01:00,56.0,56.0,30.13,SW,225,5.0,8.0,100,0.00,,,0.00,,2013-04-24 14:01:00,
2013-04-24 10:11:00,56.0,56.0,30.13,SW,225,5.0,8.0,100,0.00,,,0.00,,2013-04-24 14:11:00,
2013-04-24 10:21:00,57.0,57.0,30.13,SSW,200,4.0,7.0,100,0.00,,,0.00,,2013-04-24 14:21:00,
2013-04-24 10:32:00,57.0,57.0,30.13,WNW,293,2.0,10.0,100,0.00,,,0.00,,2013-04-24 14:32:00,
2013-04-24 10:41:00,57.0,57.0,30.13,WNW,293,2.0,10.0,100,0.00,,,0.00,,2013-04-24 14:41:00,
2013-04-24 10:52:00,59.0,59.0,30.12,SW,229,2.0,5.0,100,0.00,,,0.00,,2013-04-24 14:52:00,
2013-04-24 11:01:00,60.0,59.0,30.12,SSE,165,6.0,10.0,96,0.00,,,0.00,,2013-04-24 15:01:00,
2013-04-24 11:11:00,60.0,59.0,30.12,SSE,165,6.0,10.0,96,0.00,,,0.00,,2013-04-24 15:11:00,
2013-04-24 11:22:00,61.0,60.0,30.11,West,270,2.0,8.0,96,0.00,,,0.00,,2013-04-24 15:22:00,
2013-04-24 11:33:00,62.0,59.0,30.11,SE,138,2.0,9.0,91,0.00,,,0.00,,2013-04-24 15:33:00,
2013-04-24 11:43:00,62.0,59.0,30.11,SE,138,2.0,9.0,91,0.00,,,0.00,,2013-04-24 15:43:00,
2013-04-24 11:53:00,64.0,60.0,30.10,NW,322,4.0,9.0,88,0.00,,,0.00,,2013-04-24 15:53:00,
2013-04-24 12:03:00,66.0,60.0,30.10,East,80,2.0,11.0,81,0.00,,,0.00,,2013-04-24 16:03:00,
2013-04-24 12:12:00,66.0,60.0,30.10,East,80,2.0,11.0,81,0.00,,,0.00,,2013-04-24 16:12:00,
2013-04-24 12:23:00,66.0,60.0,30.09,SSW,200,3.0,6.0,81,0.00,,,0.00,,2013-04-24 16:23:00,
2013-04-24 12:32:00,68.0,60.0,30.09,South,170,1.0,9.0,76,0.00,,,0.00,,2013-04-24 16:32:00,
2013-04-24 12:42:00,69.0,59.0,30.09,SSW,193,3.0,9.0,70,0.00,,,0.00,,2013-04-24 16:42:00,
2013-04-24 12:53:00,69.0,59.0,30.09,SSW,193,3.0,9.0,70,0.00,,,0.00,,2013-04-24 16:53:00,
2013-04-24 13:02:00,70.0,61.0,30.09,SE,124,4.0,10.0,73,0.00,,,0.00,,2013-04-24 17:02:00,
2013-04-24 13:12:00,70.0,61.0,30.09,SE,124,4.0,10.0,73,0.00,,,0.00,,2013-04-24 17:12:00,
2013-04-24 13:22:00,72.0,61.0,30.08,SSW,205,3.0,10.0,68,0.00,,,0.00,,2013-04-24 17:22:00,
2013-04-24 13:32:00,73.0,60.0,30.07,West,277,1.0,10.0,64,0.00,,,0.00,,2013-04-24 17:32:00,
2013-04-24 13:42:00,73.0,60.0,30.07,West,277,1.0,10.0,64,0.00,,,0.00,,2013-04-24 17:42:00,
2013-04-24 13:52:00,73.0,60.0,30.07,West,278,5.0,10.0,63,0.00,,,0.00,,2013-04-24 17:52:00,
2013-04-24 14:02:00,72.0,59.0,30.06,NE,51,1.0,13.0,64,0.00,,,0.00,,2013-04-24 18:02:00,
2013-04-24 14:12:00,72.0,59.0,30.06,NE,51,1.0,13.0,64,0.00,,,0.00,,2013-04-24 18:12:00,
2013-04-24 14:22:00,73.0,60.0,30.06,WSW,252,4.0,10.0,63,0.00,,,0.00,,2013-04-24 18:22:00,
2013-04-24 14:33:00,73.0,59.0,30.05,South,191,3.0,12.0,62,0.00,,,0.00,,2013-04-24 18:33:00,
2013-04-24 14:42:00,73.0,59.0,30.05,South,191,3.0,12.0,62,0.00,,,0.00,,2013-04-24 18:42:00,
2013-04-24 14:52:00,74.0,59.0,30.04,South,186,4.0,10.0,60,0.00,,,0.00,,2013-04-24 18:52:00,
2013-04-24 15:02:00,74.0,60.0,30.03,WSW,257,4.0,13.0,62,0.00,,,0.00,,2013-04-24 19:02:00,
2013-04-24 15:11:00,74.0,60.0,30.03,WSW,257,4.0,13.0,62,0.00,,,0.00,,2013-04-24 19:11:00,
2013-04-24 15:22:00,74.0,58.0,30.03,WSW,242,4.0,14.0,57,0.00,,,0.00,,2013-04-24 19:22:00,
2013-04-24 15:32:00,76.0,58.0,30.02,SSW,210,6.0,14.0,53,0.00,,,0.00,,2013-04-24 19:32:00,
2013-04-24 15:42:00,76.0,58.0,30.02,SSW,210,6.0,14.0,53,0.00,,,0.00,,2013-04-24 19:42:00,
2013-04-24 15:52:00,75.0,58.0,30.02,East,100,5.0,13.0,56,0.00,,,0.00,,2013-04-24 19:52:00,
2013-04-24 16:02:00,76.0,57.0,30.01,SW,215,3.0,11.0,52,0.00,,,0.00,,2013-04-24 20:02:00,
2013-04-24 16:11:00,76.0,57.0,30.01,SW,215,3.0,11.0,52,0.00,,,0.00,,2013-04-24 20:11:00,
2013-04-24 16:22:00,76.0,57.0,30.00,WNW,287,3.0,13.0,51,0.00,,,0.00,,2013-04-24 20:22:00,
2013-04-24 16:32:00,75.0,58.0,29.99,WSW,242,5.0,10.0,55,0.00,,,0.00,,2013-04-24 20:32:00,
2013-04-24 16:42:00,75.0,58.0,29.99,WSW,242,5.0,10.0,55,0.00,,,0.00,,2013-04-24 20:42:00,
2013-04-24 16:52:00,74.0,56.0,29.98,SSW,208,3.0,7.0,53,0.00,,,0.00,,2013-04-24 20:52:00,
2013-04-24 17:02:00,75.0,57.0,29.97,West,271,4.0,11.0,53,0.00,,,0.00,,2013-04-24 21:02:00,
2013-04-24 17:11:00,75.0,57.0,29.97,West,271,4.0,11.0,53,0.00,,,0.00,,2013-04-24 21:11:00,
2013-04-24 17:22:00,75.0,57.0,29.97,SW,222,3.0,10.0,54,0.00,,,0.00,,2013-04-24 21:22:00,
2013-04-24 17:33:00,75.0,58.0,29.97,SSW,197,3.0,11.0,56,0.00,,,0.00,,2013-04-24 21:33:00,
2013-04-24 17:42:00,75.0,58.0,29.97,SSW,197,3.0,11.0,56,0.00,,,0.00,,2013-04-24 21:42:00,
2013-04-24 17:53:00,75.0,57.0,29.97,SSW,194,5.0,11.0,54,0.00,,,0.00,,2013-04-24 21:53:00,
2013-04-24 18:03:00,74.0,57.0,29.97,SSE,156,3.0,11.0,56,0.00,,,0.00,,2013-04-24 22:03:00,
2013-04-24 18:12:00,74.0,57.0,29.97,SSE,156,3.0,11.0,56,0.00,,,0.00,,2013-04-24 22:12:00,
2013-04-24 18:22:00,74.0,57.0,29.97,WSW,239,7.0,11.0,55,0.00,,,0.00,,2013-04-24 22:22:00,
2013-04-24 18:33:00,73.0,57.0,29.97,SSW,197,4.0,11.0,57,0.00,,,0.00,,2013-04-24 22:33:00,
2013-04-24 18:42:00,73.0,57.0,29.97,SSW,197,4.0,11.0,57,0.00,,,0.00,,2013-04-24 22:42:00,
2013-04-24 18:52:00,72.0,56.0,29.98,WSW,249,1.0,13.0,57,0.00,,,0.00,,2013-04-24 22:52:00,
2013-04-24 19:02:00,72.0,56.0,29.98,WSW,249,6.0,14.0,57,0.00,,,0.00,,2013-04-24 23:02:00,
2013-04-24 19:12:00,72.0,56.0,29.98,WSW,249,6.0,14.0,57,0.00,,,0.00,,2013-04-24 23:12:00,
2013-04-24 19:21:00,71.0,56.0,29.99,WSW,256,4.0,11.0,60,0.00,,,0.00,,2013-04-24 23:21:00,
2013-04-24 19:32:00,70.0,57.0,29.98,SW,235,0.0,7.0,63,0.00,,,0.00,,2013-04-24 23:32:00,
2013-04-24 19:42:00,70.0,57.0,29.98,SW,235,0.0,7.0,63,0.00,,,0.00,,2013-04-24 23:42:00,
2013-04-24 19:52:00,70.0,57.0,29.98,SW,218,3.0,6.0,63,0.00,,,0.00,,2013-04-24 23:52:00,
2013-04-24 20:02:00,70.0,58.0,29.99,WSW,242,0.0,5.0,66,0.00,,,0.00,,2013-04-25 00:02:00,
2013-04-24 20:12:00,70.0,58.0,29.99,WSW,242,0.0,5.0,66,0.00,,,0.00,,2013-04-25 00:12:00,
2013-04-24 20:22:00,68.0,58.0,29.99,SW,224,0.0,0.0,71,0.00,,,0.00,,2013-04-25 00:22:00,
2013-04-24 20:32:00,68.0,59.0,29.99,SW,224,0.0,0.0,74,0.00,,,0.00,,2013-04-25 00:32:00,
2013-04-24 20:42:00,68.0,59.0,29.99,SW,224,0.0,0.0,74,0.00,,,0.00,,2013-04-25 00:42:00,
2013-04-24 20:52:00,67.0,59.0,29.99,SW,224,0.0,0.0,76,0.00,,,0.00,,2013-04-25 00:52:00,
2013-04-24 21:01:00,66.0,60.0,30.00,SW,224,0.0,0.0,80,0.00,,,0.00,,2013-04-25 01:01:00,
2013-04-24 21:11:00,66.0,60.0,30.00,SW,224,0.0,0.0,80,0.00,,,0.00,,2013-04-25 01:11:00,
2013-04-24 21:23:00,66.0,59.0,30.00,SSW,204,1.0,4.0,78,0.00,,,0.00,,2013-04-25 01:23:00,
2013-04-24 21:32:00,67.0,59.0,30.00,WSW,257,4.0,6.0,76,0.00,,,0.00,,2013-04-25 01:32:00,
2013-04-24 21:42:00,67.0,59.0,30.00,WSW,257,4.0,6.0,76,0.00,,,0.00,,2013-04-25 01:42:00,
2013-04-24 21:52:00,67.0,59.0,30.00,South,177,0.0,7.0,75,0.00,,,0.00,,2013-04-25 01:52:00,
2013-04-24 22:02:00,67.0,60.0,30.01,SW,233,2.0,8.0,77,0.00,,,0.00,,2013-04-25 02:02:00,
2013-04-24 22:11:00,67.0,60.0,30.01,SW,233,2.0,8.0,77,0.00,,,0.00,,2013-04-25 02:11:00,
2013-04-24 22:22:00,67.0,60.0,30.01,SW,228,1.0,10.0,77,0.00,,,0.00,,2013-04-25 02:22:00,
2013-04-24 22:32:00,67.0,59.0,30.01,SSW,204,3.0,7.0,76,0.00,,,0.00,,2013-04-25 02:32:00,
2013-04-24 22:42:00,67.0,59.0,30.01,SSW,204,3.0,7.0,76,0.00,,,0.00,,2013-04-25 02:42:00,
2013-04-24 22:52:00,67.0,59.0,30.01,SSW,204,3.0,7.0,76,0.00,,,0.00,,2013-04-25 02:52:00,
2013-04-24 23:02:00,67.0,59.0,30.00,NE,42,2.0,9.0,76,0.00,,,0.00,,2013-04-25 03:02:00,
2013-04-24 23:11:00,66.0,59.0,30.00,WSW,239,4.0,9.0,78,0.00,,,0.00,,2013-04-25 03:11:00,
2013-04-24 23:22:00,66.0,59.0,30.00,WSW,239,4.0,9.0,78,0.00,,,0.00,,2013-04-25 03:22:00,
2013-04-24 23:33:00,66.0,59.0,30.01,SW,229,6.0,10.0,79,0.00,,,0.00,,2013-04-25 03:33:00,
2013-04-24 23:42:00,66.0,59.0,30.01,SW,229,6.0,10.0,79,0.00,,,0.00,,2013-04-25 03:42:00,
2013-04-24 23:52:00,66.0,60.0,30.01,West,259,3.0,10.0,81,0.00,,,0.00,,2013-04-25 03:52:00,